Weather in Pyshkovo

Russia / Smolensk Oblast     55°37′37″N   35°17′39″E
temp.,
°C
wind,
m/s
gust,
m/s
humid.,
%
clouds,
%
prec.,
mm/h
press.,
hPa
HPBL,
m
31 july, sat
sat3100:00+16wsw378571 0.0 1005133
03:00+15sw3108759 0.1 1005286
06:00+15sw39876 0.0 1004281
09:00+20wsw510610 0.0 10051064
12:00+23wsw610435 0.0 10051839
15:00+24wsw6103916 0.0 10062253
18:00+23wsw594764 0.0 10061882
21:00+18wsw31166100 0.0 1007324
1 august, sun
sun100:00+15sw267763 0.0 100999
03:00+14sw267992 0.0 1010102
06:00+15ssw267989 0.0 1010130
09:00+20ssw3871100 0.1 1010401
12:00+18s3994100 1.6 1010424
15:00+20sw41191100 2.8 1009517
18:00+23wsw4871100 0.0 1008908
21:00+18ssw379196 0.1 1009126
2 august, mon
mon200:00+17sw22954 0.0 100933
03:00+16ssw2296100 0.0 100926
06:00+17sse249799 0.9 1009108
09:00+19sse36925 2.4 1007300
12:00+25sse3462100 0.2 10051000
15:00+24ssw4875100 1.4 1003810
18:00+25sw147354 0.6 1000438
21:00+17ssw31195100 21.9 1003305
3 august, tue
tue300:00+16ssw3998100 0.1 1002302
03:00+16wsw1399100 1.4 1003247
06:00+14nw3798100 0.8 1004425
09:00+14w3798100 1.4 1006427
12:00+18wsw358280 2.0 1007665
15:00+19w47805 3.7 10081228
18:00+19wsw3966100 0.4 1008396
21:00+15wsw227789 0.4 101034
4 august, wed
wed400:00+13wsw37910 0.0 1011183
03:00+12wsw279930 0.0 1012173
06:00+11w27979 0.0 1014211
09:00+17nw36574 0.0 1015669
12:00+20wnw354114 0.0 10162129
15:00+21wsw444189 0.0 10162376
18:00+18wsw136699 0.0 1016154
21:00+14sw11748 0.0 101711